Sauk Centre, MN

8:54 PM CST on December 14, 2019 (GMT -0600)
Sauk Centre

Weather History for KD39 - October, 2019

Change the Weather History Date:

Friday, October 11, 2019

  Actual Average (WUND) Record (WUND)
Temperature  
Mean Temperature 32 °F -  
Max Temperature 34 °F - - (-1)
Min Temperature 30 °F - - (-1)
Degree Days  
Heating Degree Days 32    
Moisture  
Dew Point 31 °F    
Average Humidity 93    
Maximum Humidity 99    
Minimum Humidity 86    
Precipitation  
Precipitation 0.00 in - - ()
Sea Level Pressure  
Sea Level Pressure 29.66 in    
Wind  
Wind Speed 15 mph ()    
Max Wind Speed 25 mph    
Max Gust Speed 39 mph    
Visibility 5.9 miles    
Events Snow , Thunderstorm    
Averages and records for this station are not official NWS values.
T = Trace of Precipitation, MM = Missing Value Source: Averaged Metar Reports

Daily Weather History Graph

Daily Weather History Graph

Search for Another Location

Airport or City:

Astronomy

Oct. 11, 2019 Rise Set
Actual Time 7:30 AM CDT 6:41 PM CDT
Civil Twilight 7:00 AM CDT 7:11 PM CDT
Nautical Twilight 6:26 AM CDT 7:45 PM CDT
Astronomical Twilight 5:51 AM CDT 8:20 PM CDT
Moon 6:20 PM CDT (10/11) 5:00 AM CDT (10/11)
Length of Visible Light 12h 10m
Length of Day
11h 10m
Waxing Gibbous, 96% of the Moon is Illuminated
Oct 11
Waxing Gibbous
Oct 13
Full
Oct 21
Last Quarter
Oct 27
New
Nov 4
First Quarter

Hourly Weather History & Observations

Time (CDT) Temp. Windchill Dew Point Humidity Pressure Visibility Wind Dir Wind Speed Gust Speed Precip Events Conditions
12:15 AM 35.6 °F 27.1 °F 34.7 °F 97% 29.70 in 10.0 mi West 12.7 mph 19.6 mph N/A Thunderstorm Overcast
12:19 AM 35.4 °F 27.8 °F 34.3 °F 96% 29.70 in 10.0 mi West 10.4 mph 17.3 mph N/A   Overcast
12:38 AM 35.2 °F 25.4 °F 34.2 °F 96% 29.72 in 10.0 mi WSW 16.1 mph 19.6 mph N/A   Overcast
12:56 AM 34.7 °F 25.5 °F 33.8 °F 97% 29.72 in 10.0 mi West 13.8 mph 19.6 mph N/A   Overcast
1:15 AM 34.3 °F 23.9 °F 33.3 °F 96% 29.70 in 10.0 mi West 17.3 mph 20.7 mph N/A   Overcast
1:16 AM 34.3 °F 23.9 °F 33.3 °F 96% 29.70 in 10.0 mi West 17.3 mph 20.7 mph N/A   Overcast
1:35 AM 34.2 °F 24.4 °F 33.1 °F 96% 29.68 in 10.0 mi West 15.0 mph 20.7 mph N/A   Overcast
1:36 AM 34.2 °F 24.4 °F 33.1 °F 96% 29.69 in 10.0 mi West 15.0 mph 20.7 mph N/A   Overcast
1:58 AM 34.0 °F 26.0 °F 32.9 °F 96% 29.69 in 10.0 mi West 10.4 mph - N/A   Overcast
2:17 AM 33.8 °F 26.4 °F 32.5 °F 95% 29.67 in 10.0 mi West 9.2 mph 20.7 mph N/A Thunderstorm Overcast
2:35 AM 33.8 °F 25.8 °F 32.7 °F 96% 29.69 in 10.0 mi WSW 10.4 mph - N/A   Overcast
2:36 AM 33.8 °F 24.8 °F 32.7 °F 96% 29.69 in 10.0 mi WSW 12.7 mph - N/A   Overcast
2:55 AM 33.3 °F 23.7 °F 32.2 °F 96% 29.70 in 7.0 mi WSW 13.8 mph 19.6 mph N/A   Overcast
2:56 AM 33.3 °F 23.7 °F 32.2 °F 96% 29.69 in 7.0 mi WSW 13.8 mph 19.6 mph N/A   Overcast
3:15 AM 33.3 °F 24.1 °F 32.2 °F 96% 29.69 in 5.0 mi WSW 12.7 mph 18.4 mph N/A   Overcast
3:19 AM 33.1 °F 23.9 °F 32.2 °F 96% 29.68 in 5.0 mi West 12.7 mph - N/A   Overcast
3:38 AM 32.9 °F 22.8 °F 32.0 °F 96% 29.70 in 4.0 mi WSW 15.0 mph 20.7 mph N/A   Overcast
3:56 AM 32.4 °F 22.1 °F 32.0 °F 99% 29.69 in 4.0 mi WSW 15.0 mph 20.7 mph N/A   Overcast
4:15 AM 32.4 °F 22.5 °F 32.0 °F 99% 29.65 in 4.0 mi West 13.8 mph - N/A   Overcast
4:16 AM 32.2 °F 21.8 °F 32.0 °F 99% 29.65 in 4.0 mi West 15.0 mph 20.7 mph N/A   Overcast
4:35 AM 32.0 °F 22.5 °F 31.8 °F 99% 29.69 in 7.0 mi WSW 12.7 mph - N/A   Overcast
4:36 AM 32.0 °F 23.0 °F 31.8 °F 99% 29.69 in 7.0 mi WSW 11.5 mph - N/A   Overcast
4:59 AM 32.4 °F 22.5 °F 31.8 °F 98% 29.70 in 10.0 mi SW 13.8 mph 17.3 mph N/A   Overcast
5:17 AM 32.0 °F 22.5 °F 31.3 °F 97% 29.68 in 5.0 mi WSW 12.7 mph 20.7 mph N/A   Overcast
5:36 AM 32.0 °F 22.1 °F 31.5 °F 98% 29.68 in 7.0 mi WSW 13.8 mph 17.3 mph N/A   Overcast
5:55 AM 32.0 °F 22.5 °F 31.1 °F 96% 29.68 in 10.0 mi WSW 12.7 mph 21.9 mph N/A   Overcast
5:56 AM 32.0 °F 23.0 °F 31.1 °F 96% 29.68 in 10.0 mi WSW 11.5 mph 21.9 mph N/A   Overcast
6:15 AM 32.0 °F 22.1 °F 30.7 °F 95% 29.68 in 10.0 mi WSW 13.8 mph 17.3 mph N/A   Overcast
6:19 AM 32.0 °F 22.1 °F 30.6 °F 94% 29.67 in 10.0 mi WSW 13.8 mph - N/A   Overcast
6:37 AM 32.0 °F 23.0 °F 30.6 °F 94% 29.69 in 10.0 mi WSW 11.5 mph 19.6 mph N/A   Overcast
6:55 AM 32.0 °F 24.2 °F 31.1 °F 96% 29.69 in 4.0 mi WSW 9.2 mph 17.3 mph N/A Snow Light Snow
7:15 AM 32.0 °F 22.1 °F 30.7 °F 95% 29.69 in 7.0 mi WSW 13.8 mph - N/A Snow Light Snow
7:16 AM 32.0 °F 22.5 °F 30.7 °F 95% 29.69 in 7.0 mi WSW 12.7 mph - N/A Snow Light Snow
7:35 AM 32.0 °F 23.0 °F 30.7 °F 95% 29.68 in 4.0 mi WSW 11.5 mph - N/A Snow Light Snow
7:36 AM 32.0 °F 23.6 °F 30.9 °F 96% 29.68 in 2.5 mi WSW 10.4 mph - N/A Snow Light Snow
7:58 AM 32.0 °F 23.0 °F 30.7 °F 95% 29.68 in 7.0 mi SW 11.5 mph 19.6 mph N/A   Overcast
8:17 AM 32.0 °F 23.0 °F 30.7 °F 95% 29.67 in 5.0 mi SW 11.5 mph 17.3 mph N/A Snow Light Snow
8:35 AM 32.0 °F 22.5 °F 30.9 °F 96% 29.67 in 7.0 mi WSW 12.7 mph 19.6 mph N/A   Overcast
8:36 AM 32.0 °F 22.5 °F 30.9 °F 96% 29.67 in 7.0 mi WSW 12.7 mph 19.6 mph N/A   Overcast
8:55 AM 32.0 °F 22.5 °F 31.1 °F 96% 29.67 in 2.0 mi SW 12.7 mph - N/A Snow Light Snow
9:18 AM 32.0 °F 22.1 °F 31.1 °F 96% 29.67 in 1.2 mi SW 13.8 mph 19.6 mph N/A Snow Light Snow
9:37 AM 32.0 °F 21.2 °F 31.1 °F 96% 29.67 in 1.0 mi WSW 16.1 mph 20.7 mph N/A Snow Light Snow
9:56 AM 32.9 °F 21.3 °F 31.3 °F 94% 29.66 in 7.0 mi SW 19.6 mph 25.3 mph N/A   Overcast
10:15 AM 33.3 °F 22.8 °F 31.3 °F 92% 29.66 in 10.0 mi SW 16.1 mph 25.3 mph N/A   Overcast
10:16 AM 33.3 °F 22.5 °F 31.6 °F 94% 29.66 in 10.0 mi SW 17.3 mph 25.3 mph N/A   Overcast
10:35 AM 33.1 °F 23.4 °F 31.1 °F 92% 29.66 in 10.0 mi SW 13.8 mph 25.3 mph N/A   Overcast
10:57 AM 33.8 °F 23.9 °F 31.8 °F 92% 29.65 in 10.0 mi SW 15.0 mph 25.3 mph N/A   Overcast
11:16 AM 33.4 °F 22.0 °F 31.6 °F 93% 29.65 in 5.0 mi SW 19.6 mph 28.8 mph N/A Snow Light Snow
11:35 AM 34.5 °F 24.1 °F 32.2 °F 91% 29.65 in 10.0 mi SW 17.3 mph 23.0 mph N/A Snow Light Snow
11:36 AM 34.7 °F 23.7 °F 32.2 °F 91% 29.65 in 10.0 mi SW 19.6 mph 25.3 mph N/A Snow Light Snow
11:55 AM 33.8 °F 22.2 °F 31.5 °F 91% 29.65 in 7.0 mi SW 20.7 mph 28.8 mph N/A   Overcast
11:56 AM 34.0 °F 22.7 °F 31.5 °F 90% 29.65 in 7.0 mi SW 19.6 mph 28.8 mph N/A   Overcast
12:18 PM 34.2 °F 21.8 °F 30.7 °F 87% 29.65 in 7.0 mi SW 24.2 mph 31.1 mph N/A   Overcast
12:37 PM 33.6 °F 21.6 °F 31.1 °F 90% 29.65 in 3.0 mi SW 21.9 mph 26.5 mph N/A   Overcast
12:55 PM 32.9 °F 20.7 °F 31.1 °F 93% 29.65 in 2.0 mi WSW 21.9 mph 29.9 mph N/A Snow Light Snow
12:56 PM 32.9 °F 21.3 °F 31.1 °F 93% 29.64 in 2.0 mi WSW 19.6 mph 29.9 mph N/A Snow Light Snow
1:15 PM 33.8 °F 22.2 °F 31.1 °F 90% 29.64 in 4.0 mi SW 20.7 mph 26.5 mph N/A Snow Light Snow
1:16 PM 33.8 °F 22.5 °F 31.1 °F 90% 29.64 in 4.0 mi SW 19.6 mph 26.5 mph N/A Snow Light Snow
1:37 PM 33.6 °F 21.6 °F 31.1 °F 90% 29.64 in 4.0 mi WSW 21.9 mph 29.9 mph N/A Snow Light Snow
1:56 PM 33.3 °F 21.5 °F 31.1 °F 92% 29.63 in 3.0 mi WSW 20.7 mph 32.2 mph N/A Snow Light Snow
2:15 PM 33.3 °F 21.5 °F 31.3 °F 92% 29.63 in 2.5 mi WSW 20.7 mph 29.9 mph N/A Snow Light Snow
2:16 PM 33.3 °F 21.5 °F 31.1 °F 92% 29.63 in 2.5 mi WSW 20.7 mph 29.9 mph N/A Snow Light Snow
2:35 PM 33.1 °F 21.9 °F 31.1 °F 92% 29.64 in 2.5 mi WSW 18.4 mph 28.8 mph N/A Snow Light Snow
2:58 PM 32.9 °F 22.0 °F 30.7 °F 92% 29.64 in 3.0 mi WSW 17.3 mph 31.1 mph N/A Snow Light Snow
3:17 PM 32.5 °F 19.9 °F 30.0 °F 90% 29.64 in 5.0 mi West 23.0 mph 36.8 mph N/A Snow Light Snow
3:36 PM 32.9 °F 20.7 °F 30.6 °F 91% 29.64 in 4.0 mi WSW 21.9 mph 27.6 mph N/A Snow Light Snow
3:55 PM 32.9 °F 21.0 °F 30.6 °F 91% 29.64 in 7.0 mi WSW 20.7 mph 27.6 mph N/A Snow Light Snow
3:56 PM 32.9 °F 19.8 °F 30.6 °F 91% 29.63 in 7.0 mi WSW 25.3 mph 39.1 mph N/A Snow Light Snow
4:18 PM 32.7 °F 20.4 °F 30.2 °F 90% 29.64 in 5.0 mi WSW 21.9 mph 27.6 mph N/A Snow Light Snow
4:36 PM 32.2 °F 19.7 °F 30.6 °F 94% 29.64 in 2.5 mi WSW 21.9 mph 27.6 mph N/A Snow Light Snow
4:56 PM 32.0 °F 18.9 °F 29.1 °F 89% 29.64 in 7.0 mi WSW 24.2 mph 33.4 mph N/A Snow Light Snow
5:15 PM 32.0 °F 19.8 °F 29.1 °F 89% 29.64 in 3.0 mi WSW 20.7 mph 29.9 mph N/A Snow Light Snow
5:16 PM 32.0 °F 19.5 °F 29.3 °F 90% 29.64 in 2.5 mi WSW 21.9 mph 29.9 mph N/A Snow Light Snow
5:35 PM 31.6 °F 19.0 °F 29.3 °F 91% 29.64 in 2.5 mi WSW 21.9 mph 31.1 mph N/A Snow Light Snow
5:39 PM 31.6 °F 19.7 °F 29.3 °F 91% 29.64 in 3.0 mi WSW 19.6 mph 31.1 mph N/A Snow Light Snow
5:57 PM 31.6 °F 19.0 °F 29.3 °F 91% 29.65 in 2.0 mi WSW 21.9 mph 27.6 mph N/A Snow Light Snow
6:15 PM 31.5 °F 18.8 °F 29.1 °F 91% 29.65 in 2.0 mi WSW 21.9 mph 28.8 mph N/A Snow Light Snow
6:35 PM 31.1 °F 18.0 °F 28.8 °F 91% 29.65 in 3.0 mi WSW 23.0 mph 32.2 mph N/A Snow Light Snow
6:36 PM 31.1 °F 18.9 °F 28.6 °F 90% 29.65 in 3.0 mi WSW 19.6 mph 32.2 mph N/A Snow Light Snow
6:55 PM 30.9 °F 18.4 °F 28.4 °F 90% 29.64 in 5.0 mi WSW 20.7 mph 29.9 mph N/A Snow Light Snow
6:56 PM 30.9 °F 18.4 °F 28.4 °F 90% 29.64 in 5.0 mi WSW 20.7 mph 29.9 mph N/A Snow Light Snow
7:18 PM 31.3 °F 19.2 °F 28.4 °F 89% 29.64 in 10.0 mi WSW 19.6 mph 29.9 mph N/A Snow Light Snow
7:36 PM 31.1 °F 18.6 °F 28.2 °F 89% 29.64 in 5.0 mi WSW 20.7 mph 29.9 mph N/A Snow Light Snow
7:56 PM 31.1 °F 17.7 °F 28.2 °F 89% 29.64 in 4.0 mi WSW 24.2 mph 29.9 mph N/A Snow Light Snow
8:15 PM 31.6 °F 20.0 °F 27.9 °F 86% 29.64 in 10.0 mi WSW 18.4 mph 29.9 mph N/A Snow Light Snow
8:16 PM 31.6 °F 19.7 °F 28.0 °F 87% 29.64 in 10.0 mi WSW 19.6 mph 29.9 mph N/A Snow Light Snow
8:35 PM 31.5 °F 19.1 °F 28.4 °F 88% 29.63 in 3.0 mi WSW 20.7 mph 27.6 mph N/A Snow Light Snow
8:39 PM 31.1 °F 18.6 °F 28.4 °F 90% 29.63 in 2.0 mi WSW 20.7 mph 28.8 mph N/A Snow Light Snow
8:58 PM 30.9 °F 19.1 °F 29.1 °F 93% 29.63 in 2.0 mi WSW 18.4 mph 27.6 mph N/A Snow Light Snow
9:15 PM 31.1 °F 19.3 °F 29.1 °F 92% 29.63 in 2.5 mi WSW 18.4 mph 27.6 mph N/A Snow Light Snow
9:35 PM 31.1 °F 19.7 °F 28.9 °F 92% 29.63 in 1.0 mi WSW 17.3 mph 27.6 mph N/A Snow Light Snow
9:36 PM 31.1 °F 19.7 °F 29.1 °F 92% 29.63 in 1.0 mi WSW 17.3 mph 27.6 mph N/A Snow Light Snow
9:55 PM 31.1 °F 19.3 °F 29.1 °F 92% 29.62 in 2.0 mi WSW 18.4 mph 25.3 mph N/A Snow Light Snow
9:59 PM 31.1 °F 19.7 °F 29.3 °F 93% 29.62 in 2.0 mi WSW 17.3 mph 25.3 mph N/A Snow Light Snow
10:17 PM 31.1 °F 18.6 °F 29.3 °F 93% 29.62 in 4.0 mi WSW 20.7 mph 27.6 mph N/A Snow Light Snow
10:36 PM 31.6 °F 19.0 °F 29.1 °F 90% 29.61 in 10.0 mi WSW 21.9 mph 28.8 mph N/A Snow Light Snow
10:55 PM 31.8 °F 19.3 °F 29.1 °F 90% 29.61 in 7.0 mi WSW 21.9 mph 31.1 mph N/A Snow Light Snow
10:56 PM 31.8 °F 19.0 °F 28.9 °F 89% 29.60 in 7.0 mi WSW 23.0 mph 29.9 mph N/A Snow Light Snow
11:15 PM 32.0 °F 19.2 °F 28.9 °F 88% 29.60 in 7.0 mi WSW 23.0 mph 29.9 mph N/A Snow Light Snow
11:19 PM 32.0 °F 20.8 °F 28.9 °F 88% 29.60 in 7.0 mi WSW 17.3 mph 29.9 mph N/A Snow Light Snow
11:36 PM 32.0 °F 19.8 °F 29.3 °F 90% 29.59 in 4.0 mi WSW 20.7 mph 32.2 mph N/A Snow Light Snow
11:56 PM 32.0 °F 19.5 °F 29.3 °F 90% 29.58 in 5.0 mi WSW 21.9 mph 29.9 mph N/A Snow Light Snow